Погода в Хар-Толге

Россия / Республика Калмыкия     46°06′12″N   45°05′54″E
темп.,
°C
ветер,
м/с
пор.,
м/с
влажн.,
%
обл.,
%
осадки,
мм/ч
давл.,
гПа
погр.,
м
16 мая, вс
вс1600:00+18вюв41247100 0.0 1013223
03:00+17вюв41151100 0.0 1013190
06:00+18вюв4144941 0.0 1013304
09:00+27юв8132616 0.0 10121009
12:00+32юв11141659 0.0 10102440
15:00+32юв11141611 0.0 10092677
18:00+27вюв1015284 0.0 1009805
21:00+23вюв816310 0.0 1010482
17 мая, пн
пн1700:00+20в817365 0.0 1009436
03:00+20вюв819378 0.0 1008457
06:00+21вюв9203921 0.0 1008569
09:00+27вюв11172535 0.0 10081364
12:00+31юв12151822 0.0 10071902
15:00+31юв1215175 0.0 10072067
18:00+27вюв913230 0.0 1007708
21:00+22в5112952 0.0 1008233
18 мая, вт
вт1800:00+20вюв51136100 0.0 1007257
03:00+19вюв234099 0.0 100624
06:00+19з2352100 0.0 1007116
09:00+22зсз334583 0.5 1007697
12:00+25сз444171 1.8 10081232
15:00+26зсз7842100 1.8 10071591
18:00+24зсз71057100 0.0 1008907
21:00+21з6106693 0.0 1010498
19 мая, ср
ср1900:00+18зсз5977100 0.0 1011236
03:00+16з488295 0.0 1011168
06:00+17зсз4775100 0.0 1012219
09:00+23зсз7852100 0.0 10131040
12:00+24зсз785094 0.0 10141231
15:00+25зсз894368 0.0 10151773
18:00+23зсз78456 0.0 10161098
21:00+19зсз5955100 0.0 1018345
20 мая, чт
чт2000:00+18сз486013 0.0 1018246
03:00+17с46657 0.0 1018207
06:00+17св356818 0.0 1019248
09:00+21в45460 0.0 1018772
12:00+26вюв56335 0.0 10171451
15:00+28вюв683036 0.0 10152131
18:00+28вюв693063 0.0 1013423
21:00+22юв3734100 0.0 1014132